Weather Roundup
Issued by NWS Springfield, MO

Home | Current Version | Previous Version | Text Only | Print | Product List | Glossary On
Versions: 1 2 3 4 5 6 7 8 9 10 11 12 13 14 15 16 17 18 19 20 21 22 23 24 25 26 27 28 29 30 31 32 33 34 35 36 37 38 39 40 41 42 43 44 45 46 47 48 49 50
000
NZUS99 KSGF 101207
HRRSGF

HOURLY WEATHER
NATIONAL WEATHER SERVICE SPRINGFIELD MO
700 AM CDT THU JUL 10 2014

......SGF CWA......

CITY           SKY/WX    TMP DP  RH WIND       PRES   REMARKS
SPRINGFIELD    FAIR      66  60  81 SE5       30.09R
6HR MIN TEMP:  64; 6HR MAX TEMP:  71;

JOPLIN         FAIR      68  60  75 E3        30.08R
6HR MIN TEMP:  63; 6HR MAX TEMP:  70;

WEST PLAINS    FAIR      63  60  90 NE5       30.12R
6HR MIN TEMP:  59; 6HR MAX TEMP:  67;

ROLLA            N/A    N/A N/A N/A MISG      30.11R
OSAGE BEACH    FAIR      63  57  82 CALM      30.11R
BRANSON        PTCLDY    64  63  94 CALM      30.10R

......SURROUNDING SGF CWA......

CITY           SKY/WX    TMP DP  RH WIND       PRES   REMARKS
CHANUTE        LGT RAIN  67  63  87 W5        30.10R
PARSONS        LGT RAIN  68  63  84 W3        30.11R
COFFEYVILLE    LGT RAIN  68  64  87 W3        30.08R
EMPORIA        FAIR      67  62  84 S10       30.07R
GROVE OK       FAIR      68  68 100 SE6       30.04S
ROGERS AR      FAIR      67  63  87 E6        30.09R
SILOAM SPRINGS FAIR      64  57  77 SE6       30.08R
HARRISON AR    FAIR      63  61  93 E3        30.09R
NEAR YELLVILLE FAIR      61  59  94 NE3       30.08R

......KANSAS AND MISSOURI......

CITY           SKY/WX    TMP DP  RH WIND       PRES   REMARKS
KANSAS CTY INT CLOUDY    69  58  67 SE10      30.07R
DOWNTOWN KC    FAIR      72  59  63 S9        30.07R
COLUMBIA       FAIR      63  59  87 SE3       30.13R
SEDALIA        FAIR      66  61  84 SE6       30.12R
ST JOSEPH      FAIR      69  59  70 S7        30.07R
ST LOUIS       FAIR      68  59  73 CALM      30.12R
SPIRIT OF STL  FAIR      61  60  97 CALM      30.11R
KIRKSVILLE     FAIR      61  57  87 CALM      30.13R
WICHITA        RAIN      65  64  97 SE20      30.02F FOG
TOPEKA         FAIR      71  63  75 SE12      30.05S
OLATHE         FAIR      67  60  78 SE7       30.08R

......TENNESSEE......

CITY           SKY/WX    TMP DP  RH WIND       PRES   REMARKS
MEMPHIS        FAIR      73  70  90 CALM      30.06R
NASHVILLE      PTSUNNY   69  66  90 CALM      30.07R

......ARKANSAS.......

CITY           SKY/WX    TMP DP  RH WIND       PRES   REMARKS
FAYETTEVILLE   FAIR      62  62 100 CALM      30.08R
FT SMITH       MOCLDY    73  71  93 NE6       30.03R
LITTLE ROCK    MOCLDY    73  70  90 CALM      30.05R

......OKLAHOMA.......

CITY           SKY/WX    TMP DP  RH WIND       PRES   REMARKS
TULSA          CLOUDY    72  70  93 NE9       30.01R THUNDER
PONCA CITY     HVY RAIN  65  64  97 NE10      30.12R FOG
MCALESTER      CLOUDY    73  71  93 SE7       30.01R
OKLAHOMA CITY  CLOUDY    74  70  87 S9        29.98R

......IOWA............

CITY           SKY/WX    TMP DP  RH WIND       PRES   REMARKS
DES MOINES     FAIR      65  57  75 S9        30.08R
QUAD CITIES    FAIR      61  57  87 E3        30.11R

......ILLINOIS........

CITY           SKY/WX    TMP DP  RH WIND       PRES   REMARKS
QUINCY         FAIR      64  56  75 S3        30.12R
CHICAGO        FAIR      65  56  72 CALM      30.14R



USA.gov is the U.S. government's official web portal to all federal, state and local government web resources and services.